DW7601 San Vito IT current weather conditions

sailwx.info

Wind from 093 at 0 knots gusting 2

Air temperature 7.8° C
Dewpoint 4.2° C

Last reported at 2015-Jan-31 02:51 UTC.
Time now 2015-Jan-31 04:05 UTC

Location: N 39°27' E 009°32'.
View on Google Maps.

See reports from other nearby stations

  
Tides and Currents Weather Stations Pressure Air Temp Water Temp Dewpoint Dewpoint Depression Visibility Wind Speed Wind Dir Waves Ship Positions
date/time (UTC)wind fromknots sea level pressurealtimeterstation pressurevisibilityair tempwater tempwave heightnotes
2015-Jan-31 02:51 093 0 gusting 2 7.8
2015-Jan-31 02:41 344 7.8
2015-Jan-31 02:31 298 8.3
2015-Jan-31 02:21 256 8.3
2015-Jan-31 02:11 188 8.3
2015-Jan-31 02:01 068 8.3
2015-Jan-31 01:51 242 8.3
2015-Jan-31 01:41 180 8.3
2015-Jan-31 01:31 248 8.3
2015-Jan-31 01:21 090 8.9
2015-Jan-31 01:11 260 8.9
2015-Jan-31 01:01 292 8.9
2015-Jan-31 00:51 242 8.9
2015-Jan-31 00:41 309 8.9
2015-Jan-31 00:31 006 8.9
2015-Jan-31 00:21 242 8.9
2015-Jan-31 00:11 135 9.4
2015-Jan-31 00:01 082 9.4
2015-Jan-30 23:51 179 9.4
2015-Jan-30 23:41 310 0 gusting 1 10.0
2015-Jan-30 23:31 353 1 gusting 5 10.0
2015-Jan-30 23:21 339 1 gusting 5 10.0
2015-Jan-30 23:11 302 1 gusting 4 10.0
2015-Jan-30 23:01 225 4 gusting 10 10.0
2015-Jan-30 22:51 295 4 gusting 10 10.0
2015-Jan-30 22:41 270 4 gusting 6 10.0
2015-Jan-30 22:31 262 5 gusting 8 10.6
2015-Jan-30 22:21 284 4 gusting 8 10.6
2015-Jan-30 22:11 225 2 gusting 6 10.6
2015-Jan-30 22:01 253 2 gusting 6 10.0
2015-Jan-30 21:51 261 4 gusting 8 10.6
2015-Jan-30 21:41 292 2 gusting 6 10.6
2015-Jan-30 21:31 210 4 gusting 6 10.6
2015-Jan-30 21:21 257 1 gusting 5 10.6
2015-Jan-30 21:11 315 1 gusting 4 10.6
2015-Jan-30 21:01 324 1 gusting 6 10.6
2015-Jan-30 20:51 292 1 gusting 5 10.6
2015-Jan-30 20:41 292 1 gusting 1 10.6
2015-Jan-30 20:31 308 1 gusting 4 10.6
2015-Jan-30 20:21 323 1 gusting 4 10.6
2015-Jan-30 20:11 292 1 gusting 6 10.6
2015-Jan-30 20:01 350 1 gusting 4 10.0
2015-Jan-30 19:51 327 0 gusting 1 10.0
2015-Jan-30 19:41 024 1 gusting 4 10.0
2015-Jan-30 19:31 292 1 gusting 4 10.0
2015-Jan-30 19:21 353 1 gusting 2 10.0
2015-Jan-30 19:11 334 2 gusting 4 10.0
2015-Jan-30 19:01 310 1 gusting 4 10.0
2015-Jan-30 18:51 335 1 gusting 6 10.0
2015-Jan-30 18:41 292 1 gusting 4 10.6
2015-Jan-30 18:31 305 1 gusting 5 10.6
2015-Jan-30 18:21 314 1 gusting 5 10.6
2015-Jan-30 18:11 315 4 gusting 7 10.6
2015-Jan-30 18:01 309 4 gusting 7 10.6
2015-Jan-30 17:51 331 4 gusting 5 10.6
2015-Jan-30 17:41 270 10.6
2015-Jan-30 17:31 270 10.6
2015-Jan-30 17:21 270 10.6
2015-Jan-30 17:11 270 10.6
2015-Jan-30 17:01 270 11.1
2015-Jan-30 16:51 270 10.6
2015-Jan-30 16:41 270 11.1
2015-Jan-30 16:31 270 11.1
2015-Jan-30 16:21 270 11.1
2015-Jan-30 16:11 270 11.1
2015-Jan-30 16:01 270 11.1
2015-Jan-30 15:51 270 11.1
2015-Jan-30 15:41 270 11.1
2015-Jan-30 15:31 270 11.1
2015-Jan-30 15:21 270 11.1
2015-Jan-30 15:11 270 11.1
2015-Jan-30 15:01 270 11.7
2015-Jan-30 14:51 270 11.7
2015-Jan-30 14:41 270 11.1
2015-Jan-30 14:31 270 11.1
2015-Jan-30 14:21 270 11.1
2015-Jan-30 14:11 270 11.1
2015-Jan-30 14:01 270 10.6
2015-Jan-30 13:51 270 10.6
2015-Jan-30 13:41 270 11.7
2015-Jan-30 13:31 270 11.7
2015-Jan-30 13:21 270 12.2
2015-Jan-30 13:11 270 12.2
2015-Jan-30 13:01 270 12.2
2015-Jan-30 12:51 270 12.8
2015-Jan-30 12:41 270 12.8
2015-Jan-30 12:31 270 12.8
2015-Jan-30 12:21 270 12.8
2015-Jan-30 12:11 270 12.8
2015-Jan-30 12:01 270 12.2
2015-Jan-30 11:51 270 12.2
2015-Jan-30 11:41 270 12.2
2015-Jan-30 11:31 270 12.8
2015-Jan-30 11:21 270 13.3
2015-Jan-30 11:11 270 13.3
2015-Jan-30 11:01 270 13.3
2015-Jan-30 10:51 270 13.3
2015-Jan-30 10:41 270 13.3
2015-Jan-30 10:31 270 13.3
2015-Jan-30 10:21 270 13.9
2015-Jan-30 10:11 270 14.4
2015-Jan-30 10:01 270 13.9
2015-Jan-30 09:51 270 14.4
2015-Jan-30 09:41 270 14.4
2015-Jan-30 09:31 270 14.4
2015-Jan-30 09:21 270 14.4
2015-Jan-30 09:11 270 15.0
2015-Jan-30 09:01 270 6 gusting 10 15.6
2015-Jan-30 08:51 251 5 gusting 12 16.1
2015-Jan-30 08:41 256 4 gusting 7 16.1
2015-Jan-30 08:31 255 7 gusting 13 15.6
2015-Jan-30 08:21 247 6 gusting 10 15.6
2015-Jan-30 08:11 270 7 gusting 13 15.0
2015-Jan-30 08:01 248 6 gusting 7 15.6
2015-Jan-30 07:51 270 5 gusting 11 15.0
2015-Jan-30 07:41 278 6 gusting 10 15.0
2015-Jan-30 07:31 269 5 gusting 8 15.0
2015-Jan-30 07:21 268 4 gusting 6 14.4
2015-Jan-30 07:11 252 5 gusting 10 15.0
2015-Jan-30 07:01 188 2 gusting 6 15.0
2015-Jan-30 06:51 231 1 gusting 6 14.4
2015-Jan-30 06:41 300 3 gusting 6 14.4
2015-Jan-30 06:31 277 5 gusting 10 15.0
2015-Jan-30 06:21 254 5 gusting 10 15.0
2015-Jan-30 06:11 270 4 gusting 8 15.0
2015-Jan-30 06:01 297 6 gusting 10 15.0
2015-Jan-30 05:51 284 5 gusting 6 14.4
2015-Jan-30 05:41 293 6 gusting 13 14.4
2015-Jan-30 05:31 314 6 gusting 13 14.4
2015-Jan-30 05:21 292 6 gusting 10 14.4
2015-Jan-30 05:11 247 5 gusting 10 14.4
2015-Jan-30 05:01 289 4 gusting 6 13.9
2015-Jan-30 04:51 270 4 gusting 6 13.9
2015-Jan-30 04:41 292 5 gusting 12 14.4
2015-Jan-30 04:31 323 5 gusting 8 14.4
2015-Jan-30 04:21 225 4 gusting 7 14.4
2015-Jan-30 04:11 278 4 gusting 7 14.4
2015-Jan-30 04:01 270 4 gusting 7 14.4
2015-Jan-30 03:51 284 6 gusting 18 14.4
2015-Jan-30 03:41 284 6 gusting 8 14.4
2015-Jan-30 03:31 347 6 gusting 12 14.4
2015-Jan-30 03:21 307 5 gusting 12 14.4
2015-Jan-30 03:11 292 5 gusting 7 14.4
2015-Jan-30 03:01 270 6 gusting 10 14.4
2015-Jan-30 02:51 258 6 gusting 13 15.0
2015-Jan-30 02:41 267 7 gusting 21 15.0
2015-Jan-30 02:31 324 6 gusting 11 15.0
2015-Jan-30 02:21 338 5 gusting 11 15.0
2015-Jan-30 02:11 281 4 gusting 6 14.4
2015-Jan-30 02:01 270 6 gusting 10 15.0
2015-Jan-30 01:51 284 5 gusting 8 14.4
2015-Jan-30 01:41 315 6 gusting 13 14.4
2015-Jan-30 01:31 14.4
2015-Jan-30 01:21 262 5 gusting 8 14.4
2015-Jan-30 01:11 255 6 gusting 7 14.4
2015-Jan-30 01:01 299 6 gusting 8 14.4
2015-Jan-30 00:51 305 5 gusting 11 14.4
2015-Jan-30 00:41 298 6 gusting 17 14.4
2015-Jan-30 00:31 270 5 gusting 7 13.9
2015-Jan-30 00:21 270 6 gusting 7 13.9
2015-Jan-30 00:11 263 4 gusting 7 13.9
2015-Jan-30 00:01 323 5 gusting 8 13.9
2015-Jan-29 23:51 247 5 gusting 6 13.9
2015-Jan-29 23:41 229 5 gusting 7 13.9
2015-Jan-29 23:31 278 6 gusting 13 13.9
2015-Jan-29 23:21 270 6 gusting 13 13.9
2015-Jan-29 23:11 223 5 gusting 10 13.9
2015-Jan-29 23:01 270 7 gusting 14 13.9
2015-Jan-29 22:51 284 6 gusting 14 13.9
2015-Jan-29 22:41 278 6 gusting 10 13.9
2015-Jan-29 22:31 256 7 gusting 12 13.9
2015-Jan-29 22:21 285 7 gusting 15 13.9
2015-Jan-29 22:11 247 6 gusting 13 13.9
2015-Jan-29 22:01 202 6 gusting 14 13.9
2015-Jan-29 21:51 255 6 gusting 13 13.9
2015-Jan-29 21:41 226 6 gusting 13 13.3
2015-Jan-29 21:31 270 6 gusting 15 13.3
2015-Jan-29 21:21 256 5 gusting 8 13.9
2015-Jan-29 21:11 289 5 gusting 7 13.3
2015-Jan-29 21:01 257 5 gusting 15 13.3
2015-Jan-29 20:51 265 4 gusting 15 13.3
2015-Jan-29 20:41 213 6 gusting 10 13.3
2015-Jan-29 20:31 256 5 gusting 11 13.3
2015-Jan-29 20:21 312 5 gusting 10 13.3
2015-Jan-29 20:11 227 4 gusting 6 13.3
2015-Jan-29 20:01 284 4 gusting 7 13.3
2015-Jan-29 19:51 209 2 gusting 6 13.3
2015-Jan-29 19:41 282 4 gusting 8 13.3
2015-Jan-29 19:31 257 4 gusting 7 13.3
2015-Jan-29 19:21 209 4 gusting 7 13.3
2015-Jan-29 19:11 233 4 gusting 8 13.3
2015-Jan-29 19:01 220 4 gusting 6 13.3
2015-Jan-29 18:51 242 2 gusting 5 12.8
2015-Jan-29 18:41 270 2 gusting 4 12.8
2015-Jan-29 18:31 279 4 gusting 6 12.8
2015-Jan-29 18:21 202 3 gusting 6 12.8
2015-Jan-29 18:11 191 2 gusting 4 12.8
2015-Jan-29 18:01 255 4 gusting 7 12.8
2015-Jan-29 17:51 270 3 gusting 6 12.8
2015-Jan-29 17:41 262 4 gusting 7 12.8
2015-Jan-29 17:31 202 2 gusting 6 12.8
2015-Jan-29 17:21 256 2 gusting 7 12.8
2015-Jan-29 17:11 245 0 gusting 1 12.2
2015-Jan-29 17:01 293 12.8
2015-Jan-29 16:51 231 1 gusting 2 12.8
2015-Jan-29 16:41 270 1 gusting 4 12.8
2015-Jan-29 16:31 300 2 gusting 6 13.3
2015-Jan-29 16:21 261 2 gusting 6 13.3
2015-Jan-29 16:11 262 1 gusting 2 13.3
2015-Jan-29 16:01 256 1 gusting 4 13.3
2015-Jan-29 15:51 292 0 gusting 2 13.3
2015-Jan-29 15:41 308 0 gusting 2 13.3
2015-Jan-29 15:31 225 2 gusting 5 13.3
2015-Jan-29 15:21 336 4 gusting 6 13.3
2015-Jan-29 15:11 349 4 gusting 6 13.3
2015-Jan-29 15:01 300 4 gusting 7 13.3
2015-Jan-29 14:51 315 5 gusting 10 13.9
2015-Jan-29 14:41 322 6 gusting 10 13.9
2015-Jan-29 14:31 038 6 gusting 10 13.9
2015-Jan-29 14:21 330 5 gusting 10 14.4
2015-Jan-29 14:11 307 5 gusting 10 15.0
2015-Jan-29 14:01 302 6 gusting 10 15.0
2015-Jan-29 13:51 330 5 gusting 13 15.0
2015-Jan-29 13:41 338 6 gusting 11 14.4
2015-Jan-29 13:31 353 6 gusting 8 14.4
2015-Jan-29 13:21 338 6 gusting 8 13.9
2015-Jan-29 13:11 323 6 gusting 10 13.9
2015-Jan-29 13:01 338 6 gusting 10 13.9
2015-Jan-29 12:51 338 8 gusting 14 13.9
2015-Jan-29 12:41 323 7 gusting 13 13.9
2015-Jan-29 12:31 338 6 gusting 8 13.3
2015-Jan-29 12:21 292 6 gusting 10 12.8
2015-Jan-29 12:11 338 6 gusting 10 12.8
2015-Jan-29 12:01 330 6 gusting 13 12.8
2015-Jan-29 11:51 315 6 gusting 11 12.8
2015-Jan-29 11:41 284 2 gusting 8 12.2
2015-Jan-29 11:31 300 5 gusting 10 12.2
2015-Jan-29 11:21 337 2 gusting 7 11.7
2015-Jan-29 11:11 248 2 gusting 6 11.1
2015-Jan-29 11:01 314 1 gusting 6 10.0
2015-Jan-29 10:51 225 8.9
2015-Jan-29 10:41 298 8.3
2015-Jan-29 10:31 196 0 gusting 1 8.3
2015-Jan-29 10:21 039 0 gusting 1 7.8
2015-Jan-29 10:11 006 1 gusting 1 7.8
2015-Jan-29 10:01 022 1 gusting 2 7.8
2015-Jan-29 09:51 028 0 gusting 2 7.8
2015-Jan-29 09:41 047 0 gusting 2 7.8
2015-Jan-29 09:31 7.8
2015-Jan-29 09:21 061 1 gusting 2 8.3
2015-Jan-29 09:11 076 1 gusting 2 7.8
2015-Jan-29 09:01 263 0 gusting 2 8.3
2015-Jan-29 08:51 022 0 gusting 1 8.3
2015-Jan-29 08:41 087 8.3
2015-Jan-29 08:31 024 0 gusting 1 8.3
2015-Jan-29 08:21 022 1 gusting 2 8.3
2015-Jan-29 08:11 035 1 gusting 2 8.3
2015-Jan-29 08:01 024 2 gusting 4 8.3
2015-Jan-29 07:51 344 0 gusting 2 7.8
2015-Jan-29 07:41 002 0 gusting 1 7.8
2015-Jan-29 07:31 331 7.8
2015-Jan-29 07:21 211 7.8
2015-Jan-29 07:11 133 7.8
2015-Jan-29 07:01 068 1 gusting 5 7.8
2015-Jan-29 06:51 315 4 gusting 6 6.7
2015-Jan-29 05:51 122 0 gusting 0 3.3
2015-Jan-29 05:41 121 3.3
2015-Jan-29 05:31 258 0 gusting 1 3.3
2015-Jan-29 05:21 054 0 gusting 1 3.3
2015-Jan-29 05:11 204 1 gusting 2 3.9
2015-Jan-29 05:01 068 0 gusting 2 3.3
2015-Jan-29 04:51 247 0 gusting 1 3.3
2015-Jan-29 04:41 068 0 gusting 2 3.3
2015-Jan-29 04:31 041 3.3
2015-Jan-29 04:21 243 3.3
2015-Jan-29 04:11 206 3.3
2015-Jan-29 04:01 211 3.3